Ozark, AL

10:23 PM CDT on July 26, 2017 (GMT -0500)
Cairns Army Air Field

Weather History for KOZR - August, 2013

Change the Weather History Date:

Saturday, August 24, 2013

  Actual Average Record
Temperature  
Mean Temperature 78 °F -  
Max Temperature 89 °F 87 °F 99 °F (2014)
Min Temperature 69 °F 67 °F 62 °F (2001)
Cooling Degree Days 14    
Growing Degree Days 28 (Base 50)    
Moisture  
Dew Point 71 °F    
Average Humidity 94    
Maximum Humidity 100    
Minimum Humidity 59    
Precipitation  
Precipitation 0.78 in - - ()
Sea Level Pressure  
Sea Level Pressure 30.09 in    
Wind  
Wind Speed 3 mph (ENE)    
Max Wind Speed 25 mph    
Max Gust Speed 33 mph    
Visibility 4 miles    
Events Fog , Rain , Thunderstorm    
Averages and records for this station are not official NWS values.
T = Trace of Precipitation, MM = Missing Value Source: NWS Daily Summary

Daily Weather History Graph

Daily Weather History Graph

Search for Another Location

Airport or City:

Trip Planner

Search our weather history database for the weather conditions in past years. The results will help you decide how hot, cold, wet, or windy it might be!

Date:

Astronomy

Aug. 24, 2013 Rise Set
Actual Time 6:14 AM CDT 7:15 PM CDT
Civil Twilight 5:49 AM CDT 7:40 PM CDT
Nautical Twilight 5:19 AM CDT 8:10 PM CDT
Astronomical Twilight 4:48 AM CDT 8:40 PM CDT
Moon 9:30 PM CDT (8/24) 9:53 AM CDT (8/24)
Length of Visible Light 13h 51m
Length of Day
13h 01m
Waning Gibbous, 84% of the Moon is Illuminated
Aug 24
Waning Gibbous
Aug 28
Last Quarter
Sep 5
New
Sep 12
First Quarter
Sep 19
Full

Hourly Weather History & Observations

Time (CDT) Temp. Heat Index Dew Point Humidity Pressure Visibility Wind Dir Wind Speed Gust Speed Precip Events Conditions
12:58 AM 71.2 °F - 70.5 °F 98% 30.04 in 10.0 mi Calm Calm - N/A   Clear
1:58 AM 70.9 °F - 70.7 °F 99% 30.03 in 10.0 mi South 4.6 mph - N/A   Clear
2:15 AM 71.6 °F - 71.6 °F 100% 30.03 in 4.0 mi South 4.6 mph - N/A   Partly Cloudy
2:33 AM 71.6 °F - 71.6 °F 100% 30.04 in 1.5 mi Calm Calm - N/A   Clear
2:38 AM 71.6 °F - 71.6 °F 100% 30.03 in 1.0 mi Calm Calm - N/A   Clear
2:43 AM 71.6 °F - 71.6 °F 100% 30.03 in 0.8 mi Calm Calm - N/A   Clear
2:48 AM 71.6 °F - 71.6 °F 100% 30.03 in 0.5 mi SSW 1.2 mph - N/A Fog Fog
2:58 AM 70.9 °F - 70.9 °F 100% 30.04 in 0.5 mi SW 1.2 mph - N/A Fog Fog
3:03 AM 71.6 °F - 71.6 °F 100% 30.04 in 0.2 mi Calm Calm - N/A Fog Fog
3:04 AM 71.6 °F - 71.6 °F 100% 30.04 in 0.2 mi Calm Calm - N/A Fog Fog
3:14 AM 71.6 °F - 71.6 °F 100% 30.04 in 0.5 mi Calm Calm - N/A Fog Fog
3:19 AM 71.6 °F - 71.6 °F 100% 30.04 in 0.8 mi West 2.3 mph - N/A   Mist
3:24 AM 69.8 °F - 69.8 °F 100% 30.04 in 0.5 mi WNW 1.2 mph - N/A Fog Fog
3:29 AM 69.8 °F - 69.8 °F 100% 30.04 in 0.5 mi Calm Calm - N/A Fog Fog
3:34 AM 69.8 °F - 69.8 °F 100% 30.04 in 0.8 mi Calm Calm - N/A   Mist
3:39 AM 69.8 °F - 69.8 °F 100% 30.04 in 1.5 mi Calm Calm - N/A   Clear
3:44 AM 69.8 °F - 69.8 °F 100% 30.04 in 4.0 mi Calm Calm - N/A   Clear
3:58 AM 70.3 °F - 70.3 °F 100% 30.05 in 9.0 mi NNE 2.3 mph - N/A   Clear
4:09 AM 69.8 °F - 69.8 °F 100% 30.05 in 5.0 mi NNE 4.6 mph - N/A   Partly Cloudy
4:19 AM 69.8 °F - 69.8 °F 100% 30.06 in 6.0 mi NNE 4.6 mph - N/A   Mostly Cloudy
4:24 AM 71.6 °F - 71.6 °F 100% 30.06 in 2.5 mi NNE 4.6 mph - N/A   Mostly Cloudy
4:29 AM 69.8 °F - 69.8 °F 100% 30.06 in 2.5 mi NNE 5.8 mph - N/A   Scattered Clouds
4:34 AM 69.8 °F - 69.8 °F 100% 30.06 in 2.5 mi NNE 6.9 mph - N/A   Mostly Cloudy
4:39 AM 71.6 °F - 71.6 °F 100% 30.06 in 2.5 mi NNE 5.8 mph - N/A   Mostly Cloudy
4:44 AM 69.8 °F - 69.8 °F 100% 30.05 in 7.0 mi NE 5.8 mph - N/A   Scattered Clouds
4:58 AM 70.3 °F - 70.3 °F 100% 30.05 in 3.0 mi NE 3.5 mph - N/A   Partly Cloudy
5:03 AM 69.8 °F - 69.8 °F 100% 30.05 in 2.5 mi NE 2.3 mph - N/A   Clear
5:08 AM 69.8 °F - 69.8 °F 100% 30.06 in 1.5 mi NE 4.6 mph - N/A   Clear
5:13 AM 69.8 °F - 69.8 °F 100% 30.06 in 0.8 mi NE 3.5 mph - N/A   Clear
5:18 AM 69.8 °F - 69.8 °F 100% 30.06 in 0.5 mi NE 4.6 mph - N/A Fog Fog
5:28 AM 69.8 °F - 69.8 °F 100% 30.06 in 0.8 mi NNE 4.6 mph - N/A   Clear
5:33 AM 69.8 °F - 69.8 °F 100% 30.07 in 1.2 mi NNE 3.5 mph - N/A   Clear
5:38 AM 69.8 °F - 69.8 °F 100% 30.07 in 1.5 mi NNE 3.5 mph - N/A   Clear
5:53 AM 69.8 °F - 69.8 °F 100% 30.07 in 1.0 mi East 2.3 mph - N/A   Clear
5:58 AM 70.2 °F - 70.2 °F 100% 30.07 in 0.5 mi ESE 2.3 mph - N/A Fog Fog
6:03 AM 69.8 °F - 69.8 °F 100% 30.07 in 0.5 mi East 1.2 mph - N/A Fog Fog
6:08 AM 69.8 °F - 69.8 °F 100% 30.07 in 0.2 mi East 1.2 mph - N/A Fog Fog
6:13 AM 69.8 °F - 69.8 °F 100% 30.08 in 0.2 mi East 2.3 mph - N/A Fog Fog
6:23 AM 69.8 °F - 69.8 °F 100% 30.08 in 0.2 mi East 3.5 mph - N/A Fog Fog
6:24 AM 69.8 °F - 69.8 °F 100% 30.08 in 0.2 mi ESE 2.3 mph - N/A Fog Fog
6:29 AM 69.8 °F - 69.8 °F 100% 30.09 in 0.2 mi East 3.5 mph - N/A Fog Fog
6:58 AM 70.2 °F - 70.2 °F 100% 30.10 in 0.2 mi East 3.5 mph - N/A Fog Fog
7:03 AM 69.8 °F - 69.8 °F 100% 30.10 in 0.2 mi ENE 2.3 mph - N/A Fog Fog
7:08 AM 69.8 °F - 69.8 °F 100% 30.10 in 0.2 mi ENE 3.5 mph - N/A Fog Fog
7:48 AM 71.6 °F - 71.6 °F 100% 30.12 in 0.5 mi ESE 4.6 mph - N/A Fog Fog
7:53 AM 71.6 °F - 71.6 °F 100% 30.12 in 0.5 mi East 3.5 mph - N/A Fog Fog
7:58 AM 72.0 °F - 72.0 °F 100% 30.12 in 0.5 mi Variable 2.3 mph - N/A Fog Fog
8:08 AM 71.6 °F - 71.6 °F 100% 30.12 in 0.5 mi ESE 2.3 mph - N/A Fog Fog
8:18 AM 71.6 °F - 71.6 °F 100% 30.12 in 0.8 mi Calm Calm - N/A   Mist
8:23 AM 71.6 °F - 71.6 °F 100% 30.12 in 1.2 mi East 2.3 mph - N/A   Overcast
8:28 AM 73.4 °F - 73.4 °F 100% 30.12 in 2.0 mi ENE 2.3 mph - N/A   Overcast
8:38 AM 73.4 °F - 73.4 °F 100% 30.12 in 3.0 mi ENE 1.2 mph - N/A   Overcast
8:53 AM 73.4 °F - 73.4 °F 100% 30.12 in 10.0 mi NE 4.6 mph - N/A   Overcast
8:58 AM 73.8 °F - 73.8 °F 100% 30.12 in 10.0 mi ENE 2.3 mph - N/A   Mostly Cloudy
9:07 AM 73.4 °F - 73.4 °F 100% 30.12 in 10.0 mi Calm Calm - N/A   Scattered Clouds
9:08 AM 75.2 °F - 75.2 °F 100% 30.12 in 10.0 mi Calm Calm - N/A   Scattered Clouds
9:58 AM 79.0 °F - 78.3 °F 98% 30.13 in 10.0 mi NE 3.5 mph - N/A   Clear
10:58 AM 84.2 °F 90.6 °F 72.9 °F 69% 30.14 in 10.0 mi Variable 4.6 mph - N/A   Clear
11:58 AM 86.2 °F 93.4 °F 73.2 °F 65% 30.13 in 10.0 mi Variable 2.3 mph - N/A   Scattered Clouds
12:58 PM 86.0 °F 93.0 °F 72.9 °F 65% 30.13 in 10.0 mi East 2.3 mph - N/A   Mostly Cloudy
1:58 PM 88.7 °F 97.7 °F 73.9 °F 62% 30.11 in 10.0 mi NNE 6.9 mph - N/A   Partly Cloudy
2:58 PM 87.8 °F 94.3 °F 72.0 °F 59% 30.09 in 10.0 mi Variable 4.6 mph - N/A   Partly Cloudy
3:58 PM 88.2 °F 96.0 °F 73.4 °F 61% 30.08 in 10.0 mi East 3.5 mph - N/A   Partly Cloudy
4:58 PM 87.1 °F 94.9 °F 73.8 °F 64% 30.07 in 10.0 mi ENE 4.6 mph - N/A   Partly Cloudy
5:58 PM 84.6 °F 93.2 °F 75.6 °F 74% 30.08 in 10.0 mi NE 6.9 mph - N/A   Clear
6:55 PM 82.4 °F 90.9 °F 77.0 °F 84% 30.09 in 10.0 mi ENE 3.5 mph - N/A Thunderstorm Thunderstorm
6:58 PM 82.0 °F 89.7 °F 76.3 °F 83% 30.09 in 10.0 mi ENE 3.5 mph - N/A Thunderstorm Thunderstorm
7:10 PM 82.4 °F 89.5 °F 75.2 °F 79% 30.09 in 10.0 mi ESE 2.3 mph - N/A   Clear
7:58 PM 78.1 °F - 74.1 °F 88% 30.12 in 10.0 mi SW 4.6 mph - N/A   Partly Cloudy
8:58 PM 75.9 °F - 72.9 °F 90% 30.11 in 10.0 mi West 2.3 mph - N/A   Clear
9:58 PM 76.3 °F - 73.0 °F 90% 30.14 in 10.0 mi North 3.5 mph - N/A   Partly Cloudy
10:33 PM 77.0 °F - 73.4 °F 89% 30.18 in 7.0 mi East 20.7 mph 28.8 mph N/A Thunderstorm Overcast
10:34 PM 77.0 °F - 73.4 °F 89% 30.18 in 5.0 mi East 25.3 mph 29.9 mph N/A Rain , Thunderstorm Light Rain
10:39 PM 75.2 °F - 71.6 °F 89% 30.18 in 2.0 mi East 24.2 mph 32.2 mph N/A Rain Rain
10:44 PM 73.4 °F - 69.8 °F 88% 30.19 in 0.8 mi East 20.7 mph 33.4 mph N/A Rain Heavy Rain
10:49 PM 71.6 °F - 69.8 °F 94% 30.19 in 0.5 mi East 19.6 mph 33.4 mph N/A Fog , Rain Heavy Rain
10:54 PM 71.6 °F - 69.8 °F 94% 30.19 in 0.8 mi East 13.8 mph 28.8 mph N/A Rain Heavy Rain
10:58 PM 71.6 °F - 69.8 °F 94% 30.19 in 1.0 mi East 12.7 mph 28.8 mph 0.69 in Rain Heavy Rain
11:03 PM 71.6 °F - 69.8 °F 94% 30.20 in 2.5 mi ESE 12.7 mph 21.9 mph N/A Rain , Thunderstorm Rain
11:08 PM 71.6 °F - 69.8 °F 94% 30.20 in 5.0 mi ESE 12.7 mph 21.9 mph N/A Rain , Thunderstorm Rain
11:58 PM 70.9 °F - 69.8 °F 96% 30.19 in 10.0 mi Variable 1.2 mph - 0.09 in Rain Rain